STARLINK-32133, 60333

Orbit data source: Space-Track

STARLINK-32133, 60333 is a payload satellite owned by SpaceX/Seattle (US) in LEO that was launched on Fri, 02 Aug 2024 UTC via an FALCON 9 launch vehicle from the Air Force Eastern Test Range (AFETR). Payload-class satellites include a variety of spacecraft equipped with specific instruments for various scientific and technological missions. These include communications satellites like Starlink; space stations such as the ISS; scientific satellites like the Hubble; Earth observation satellites from companies like Planet Labs, Umbra, and HawkEye 360; GPS; miniature CubeSats for education and research; and military/defense satellites.

Loading next visibility...
Identifier
60333, 2024-136E
Orbit
LEO
Country
Flag of USUS
Related business
Manufacturer
SpaceX/Seattle
Mission
Operational Commercial Communications
Bus & Motor
STARLINK V2M, Unknown motor
Mass
730 kg wet, ~700 kg dry
Launch date (UTC)
2024-08-02 (2 years ago)
Launch vehicle
FALCON 9
Launch site
Air Force Eastern Test Range (AFETR)
Object type
Payload
Rocket body
Debris
Shape & HBR
Box + 2 Pan, 17.7 m
Radar Cross Section
33.884 m², Large (>1 m²)

Expand to show TLE details & history
Last TLE update: 19 hours ago

TLE from 19 hours ago
0 STARLINK-32133
1 60333U 24136E   26034.54587952  .00000037  00000-0  13374-4 0  9993
2 60333  53.1593 234.4983 0001460  95.2426 264.8742 15.30191679 84439
Epoch: 2026-02-03T13:06Z
TLE epoch observation values (Epoch: 2026-02-03T13:06:03.990Z)
Latitude
0.00003°
Longitude
-95.74357°
Altitude
476.229 km
Speed
7.629 km/s
True Right ascension
15h 37m 59s
True Declination
0° 00' 00"
Sunlit
Object was in daylight at epoch
Visualization orbit readout
Latitude
Unknown
Longitude
Unknown
Altitude
Unknown
Speed
Unknown
Apparent Right ascension
Unknown
Apparent Declination
Unknown
Sunlit
N/A
Visualization observer readout
Local Sidereal Time
10:04:47
Azimuth
Unknown
Elevation
Unknown
Doppler factor
Unknown
Orbital elements
Apogee altitude
476.497 km
Perigee altitude
474.496 km
Semi-major axis
6,853.633 km
Eccentricity
0.00015
Inclination
53.1593°
RAAN
234.4983°
Arg. of periapsis
95.2426°
True anomaly
264.85754°
Mean anomaly
264.8742°
Eccentric anomaly
264.86587°
Mean motion
3.82527 °/min
Orbital period
94.11 mins
BSTAR
0.000013374
Loading maneuver chart data...
Computing Atmospheric mass density...
Loading historical data...
Loading historical data...
Loading historical data...
Loading historical data...
Loading historical data...
Loading historical data...
Loading historical data...

Documentation

Showing up to 5 results
|